Location: Newark
(54.0500°N, 12.8333°E)
Time: 00:59:02
(UTC+00:00)

Transit 4A - Pass Details

Date: 26 January 2020
Orbit: 872 x 973 km, 66.8° (Epoch: 20 February)

Event Time Altitude Azimuth Distance (km) Brightness Sun altitude
Rises 06:14:45 0° 218° (SW) 3,534 10.8 -7.6°
Reaches altitude 10° 06:17:17 10° 218° (SW) 2,581 10.1 -7.3°
Maximum altitude 06:23:16 88° 130° (SE) 897 7.9 -6.5°
Drops below altitude 10° 06:29:10 10° 42° (NE) 2,543 10.4 -5.7°
Sets 06:31:38 0° 42° (NE) 3,478 11.1 -5.3°
